Tracking 29892 objects as of 21-Nov-2024
HD Live streaming from Space Station
objects crossing your sky now

STARLINK-4631

Track STARLINK-4631 now!
10-day predictions
STARLINK-4631 is classified as:


NORAD ID: 53786
Int'l Code: 2022-111P
Perigee: 545.9 km
Apogee: 547.9 km
Inclination: 53.2 °
Period: 95.4 minutes
Semi major axis: 6917 km
RCS: Unknown
Launch date: September 11, 2022
Source: United States (US)
Launch site: AIR FORCE EASTERN TEST RANGE (AFETR)
Your satellite tracking list
Your tracking list is empty




NASA's NSSDC Master Catalog

Two Line Element Set (TLE):
1 53786U 22111P   24325.16023714  .00000680  00000-0  60783-4 0  9998
2 53786  53.2164 234.1292 0001432  83.3243 276.7913 15.08845483122206
Source of the keplerian elements: AFSPC